TimeMDT,TemperatureF,Dew PointF,Humidity,Sea Level PressureIn,VisibilityMPH,Wind Direction,Wind SpeedMPH,Gust SpeedMPH,PrecipitationIn,Events,Conditions,WindDirDegrees,DateUTC
12:35 AM,48.2,37.4,66,30.17,10.0,NE,6.9,-,N/A,,Clear,40,2012-10-15 06:35:00
12:55 AM,48.2,37.4,66,30.17,10.0,NE,8.1,-,N/A,,Clear,40,2012-10-15 06:55:00
1:15 AM,51.8,39.2,62,30.17,10.0,NE,8.1,-,N/A,,Clear,40,2012-10-15 07:15:00
1:35 AM,51.8,37.4,58,30.17,10.0,NE,8.1,-,N/A,,Clear,50,2012-10-15 07:35:00
1:55 AM,50.0,37.4,62,30.17,10.0,WSW,4.6,-,N/A,,Clear,240,2012-10-15 07:55:00
2:15 AM,50.0,37.4,62,30.16,10.0,South,3.5,-,N/A,,Clear,170,2012-10-15 08:15:00
2:55 AM,48.2,37.4,66,30.16,10.0,NW,3.5,-,N/A,,Clear,310,2012-10-15 08:55:00
3:15 AM,48.2,37.4,66,30.15,10.0,NNW,4.6,-,N/A,,Clear,330,2012-10-15 09:15:00
3:55 AM,48.2,37.4,66,30.15,10.0,SW,4.6,-,N/A,,Clear,230,2012-10-15 09:55:00
4:15 AM,46.4,37.4,71,30.14,10.0,Calm,Calm,-,N/A,,Clear,0,2012-10-15 10:15:00
4:35 AM,46.4,37.4,71,30.13,10.0,North,3.5,-,N/A,,Clear,360,2012-10-15 10:35:00
4:55 AM,48.2,37.4,66,30.13,10.0,Calm,Calm,-,N/A,,Clear,0,2012-10-15 10:55:00
5:15 AM,46.4,37.4,71,30.13,10.0,North,3.5,-,N/A,,Clear,10,2012-10-15 11:15:00
6:15 AM,46.4,37.4,71,30.13,10.0,Calm,Calm,-,N/A,,Clear,0,2012-10-15 12:15:00
6:35 AM,44.6,37.4,76,30.13,10.0,Calm,Calm,-,N/A,,Clear,0,2012-10-15 12:35:00
6:55 AM,46.4,37.4,71,30.13,10.0,SW,3.5,-,N/A,,Clear,220,2012-10-15 12:55:00
7:35 AM,46.4,39.2,76,30.14,10.0,SE,3.5,-,N/A,,Clear,140,2012-10-15 13:35:00
8:15 AM,46.4,37.4,71,30.15,10.0,Calm,Calm,-,N/A,,Clear,0,2012-10-15 14:15:00
8:35 AM,48.2,37.4,66,30.16,10.0,WSW,3.5,-,N/A,,Clear,250,2012-10-15 14:35:00
9:15 AM,50.0,37.4,62,30.13,10.0,Calm,Calm,-,N/A,,Clear,0,2012-10-15 15:15:00
9:35 AM,50.0,39.2,66,30.14,10.0,East,3.5,-,N/A,,Clear,100,2012-10-15 15:35:00
10:15 AM,50.0,39.2,66,30.16,10.0,Calm,Calm,-,N/A,,Clear,0,2012-10-15 16:15:00
10:35 AM,51.8,39.2,62,30.16,10.0,Calm,Calm,-,N/A,,Clear,0,2012-10-15 16:35:00
10:55 AM,51.8,39.2,62,30.14,10.0,Calm,Calm,-,N/A,,Clear,0,2012-10-15 16:55:00
11:15 AM,51.8,39.2,62,30.14,10.0,Calm,Calm,-,N/A,,Clear,0,2012-10-15 17:15:00
11:35 AM,53.6,39.2,58,30.15,10.0,Calm,Calm,-,N/A,,Clear,0,2012-10-15 17:35:00
11:56 AM,55.4,39.2,54,30.15,10.0,ESE,3.5,-,N/A,,Clear,120,2012-10-15 17:56:00
12:35 PM,57.2,39.2,51,30.15,10.0,East,4.6,-,N/A,,Clear,80,2012-10-15 18:35:00
12:55 PM,57.2,41.0,55,30.14,10.0,East,4.6,-,N/A,,Clear,90,2012-10-15 18:55:00
1:15 PM,60.8,41.0,48,30.13,10.0,East,3.5,-,N/A,,Clear,80,2012-10-15 19:15:00
1:35 PM,60.8,41.0,48,30.12,10.0,ESE,6.9,-,N/A,,Clear,110,2012-10-15 19:35:00
1:55 PM,62.6,41.0,45,30.12,10.0,East,6.9,-,N/A,,Clear,80,2012-10-15 19:55:00
2:36 PM,62.6,39.2,42,30.10,10.0,ENE,4.6,-,N/A,,Clear,60,2012-10-15 20:36:00
2:55 PM,64.4,39.2,40,30.09,10.0,ESE,6.9,-,N/A,,Clear,120,2012-10-15 20:55:00
3:35 PM,64.4,39.2,40,30.08,10.0,South,5.8,-,N/A,,Clear,170,2012-10-15 21:35:00
3:55 PM,64.4,39.2,40,30.08,10.0,South,4.6,-,N/A,,Clear,180,2012-10-15 21:55:00
4:15 PM,64.4,37.4,37,30.07,10.0,SSW,4.6,-,N/A,,Clear,200,2012-10-15 22:15:00
4:35 PM,66.2,37.4,35,30.06,10.0,Calm,Calm,-,N/A,,Clear,0,2012-10-15 22:35:00
4:55 PM,66.2,37.4,35,30.06,10.0,Calm,Calm,-,N/A,,Clear,0,2012-10-15 22:55:00
5:15 PM,66.2,37.4,35,30.05,10.0,Calm,Calm,-,N/A,,Clear,0,2012-10-15 23:15:00
5:35 PM,66.2,37.4,35,30.05,10.0,ENE,3.5,-,N/A,,Partly Cloudy,70,2012-10-15 23:35:00
5:55 PM,66.2,37.4,35,30.04,10.0,Calm,Calm,-,N/A,,Clear,0,2012-10-15 23:55:00
6:15 PM,66.2,37.4,35,30.03,10.0,NNE,3.5,-,N/A,,Clear,20,2012-10-16 00:15:00
6:35 PM,66.2,39.2,37,30.03,10.0,North,3.5,-,N/A,,Clear,360,2012-10-16 00:35:00
6:55 PM,64.4,41.0,42,30.02,10.0,ENE,3.5,-,N/A,,Clear,60,2012-10-16 00:55:00
7:15 PM,62.6,39.2,42,30.02,10.0,Calm,Calm,-,N/A,,Clear,0,2012-10-16 01:15:00
7:35 PM,62.6,39.2,42,30.04,10.0,NW,3.5,-,N/A,,Clear,320,2012-10-16 01:35:00
7:55 PM,60.8,41.0,48,30.04,10.0,WNW,4.6,-,N/A,,Clear,290,2012-10-16 01:55:00
8:15 PM,59.0,39.2,48,30.04,10.0,West,5.8,-,N/A,,Clear,260,2012-10-16 02:15:00
8:35 PM,59.0,39.2,48,30.04,10.0,West,3.5,-,N/A,,Clear,260,2012-10-16 02:35:00
8:55 PM,57.2,39.2,51,30.04,10.0,West,6.9,-,N/A,,Clear,270,2012-10-16 02:55:00
9:15 PM,55.4,39.2,54,30.04,10.0,West,3.5,-,N/A,,Clear,270,2012-10-16 03:15:00
9:36 PM,55.4,39.2,54,30.04,10.0,WNW,5.8,-,N/A,,Clear,300,2012-10-16 03:36:00
9:55 PM,53.6,39.2,58,30.04,10.0,East,3.5,-,N/A,,Clear,100,2012-10-16 03:55:00
10:15 PM,55.4,39.2,54,30.03,10.0,Calm,Calm,-,N/A,,Clear,0,2012-10-16 04:15:00
10:35 PM,55.4,39.2,54,30.03,10.0,South,8.1,-,N/A,,Clear,180,2012-10-16 04:35:00
10:55 PM,55.4,39.2,54,30.02,10.0,WSW,3.5,-,N/A,,Clear,250,2012-10-16 04:55:00
11:15 PM,55.4,39.2,54,30.03,10.0,Calm,Calm,-,N/A,,Clear,0,2012-10-16 05:15:00
11:35 PM,55.4,37.4,51,30.02,10.0,Calm,Calm,-,N/A,,Clear,0,2012-10-16 05:35:00
11:55 PM,55.4,39.2,54,30.02,10.0,Calm,Calm,-,N/A,,Clear,0,2012-10-16 05:55:00